User: anonymous   Login
Location: Franzen
(48.6167°N, 15.3833°E)
Time: 04:05:39
(UTC+00:00)
Language:

Cosmos 2227 Rocket - Orbit

View from above orbital plane
View from above orbital plane
View from above satellite
View from above satellite

Ground track
Ground track

The orbit data is extracted from the following two-line orbital elements,

1 22285U 92093B   21174.56425173 -.00000166  00000-0 -61067-4 0  9999
2 22285  71.0224  13.9521 0002945  19.2547 340.8687 14.15064725469804
Epoch (UTC): 23 June 2021 13:32:31
Eccentricity: 0.0002945
inclination: 71.0224°
perigee height: 840 km
apogee height: 844 km
right ascension of ascending node: 13.9521°
argument of perigee: 19.2547°
revolutions per day: 14.15064725
mean anomaly at epoch: 340.8687°
orbit number at epoch: 46980

The dashed part of the orbit path shows where the satellite is in the earth's shadow,  

DLR